This is the latest recevied weather packets stored in our database for station/object AI9F. If no packets are shown the sender has not sent any weather packets the latest 10 day(s).
| Time | Temp. | Humidity | Pressure | Rain* | Wind** | Luminosity | Snow |
|---|---|---|---|---|---|---|---|
| 1777885166 | 13.33° C | 92% | 1010.6 hPa | 0 mm | - | 0 W/m² | - |
| 1777884862 | 13.33° C | 92% | 1009.8 hPa | 0 mm | - | 0 W/m² | - |
| 1777884559 | 13.33° C | 92% | 1009.3 hPa | 0 mm | - | 0 W/m² | - |
| 1777884256 | 13.33° C | 91% | 1009.5 hPa | 0 mm | - | 0 W/m² | - |
| 1777883952 | 13.33° C | 90% | 1009.3 hPa | 0 mm | - | 0 W/m² | - |
| 1777883649 | 13.89° C | 89% | 1009.2 hPa | 0 mm | - | 0 W/m² | - |
| 1777883345 | 13.89° C | 88% | 1009.6 hPa | 1.78 mm | - | 0 W/m² | - |
| 1777883041 | 13.89° C | 88% | 1009.5 hPa | 1.78 mm | - | 0 W/m² | - |
| 1777882738 | 14.44° C | 85% | 1010.4 hPa | 1.27 mm | - | 0 W/m² | - |
| 1777882434 | 14.44° C | 83% | 1010.8 hPa | 4.32 mm | - | 0 W/m² | - |
| 1777882130 | 14.44° C | 82% | 1011.5 hPa | 10.67 mm | - | 0 W/m² | - |
| 1777881828 | 14.44° C | 83% | 1011.7 hPa | 12.7 mm | - | 0 W/m² | - |
| 1777881524 | 13.33° C | 88% | 1011.4 hPa | 6.1 mm | - | 0 W/m² | - |
| 1777881222 | 13.33° C | 92% | 1011 hPa | 1.27 mm | - | 0 W/m² | - |
| 1777880919 | 13.33° C | 90% | 1010.4 hPa | 1.78 mm | - | 0 W/m² | - |
| 1777880617 | 13.89° C | 89% | 1010.7 hPa | 3.05 mm | - | 0 W/m² | - |
| 1777880315 | 13.89° C | 87% | 1011 hPa | 3.05 mm | - | 0 W/m² | - |
| 1777880013 | 14.44° C | 84% | 1011.5 hPa | 3.05 mm | - | 0 W/m² | - |
| 1777879711 | 14.44° C | 83% | 1011.8 hPa | 6.1 mm | - | 0 W/m² | - |
| 1777879407 | 14.44° C | 82% | 1012.2 hPa | 6.6 mm | - | 0 W/m² | - |
| 1777879105 | 14.44° C | 80% | 1012.3 hPa | 4.32 mm | - | 0 W/m² | - |
| 1777878801 | 14.44° C | 78% | 1011.9 hPa | 10.16 mm | - | 0 W/m² | - |
| 1777878499 | 14.44° C | 75% | 1011.5 hPa | 8.89 mm | - | 0 W/m² | - |
| 1777878195 | 15° C | 63% | 1011.3 hPa | 0 mm | - | 0 W/m² | - |
| 1777877892 | 15° C | 63% | 1010.6 hPa | 0 mm | - | 0 W/m² | - |
* Rain latest hour (hover to see other rain measurements)
** Current wind speed in m/s (hover to see current wind gust speed)